Welcome to Northern Hawkes Bay. New Zealand.
PWS Header
      nz Flag



Hit Counter


W3C Valid W3C Valid logo


    Wairoa

Select any of the Stations below to visit their websites.










Historic Data from Weather Underground
Select the location of interest below. Wairoa is the default. Please have patience, this Data is slow to load in.
Northern Hawkes Bay Historical Data
Daily Summary for February 23, 2017 Units:  English    Metric   Both
« Previous Day
Next Day »
Daily Weekly Monthly Yearly Custom
  High: Low: Average:
Temperature: 72.3 °F 57.6 °F 64.2 °F
Dew Point: 64.9 °F 56.5 °F 61 °F
Humidity: 99% 72% 89%
Wind Speed: 11.4mph 0mph 3.9mph
Wind Gust: 15.9mph - -
Wind- - SW
Pressure: 30.2 in 30.1 in -
Precipitation: 0.02 in    
Historical Graphs
 
 
Tabular Data for February 23, 2017
Time Temperature Dew Point Pressure Wind Wind Speed Wind Gust Humidity Rainfall Rate (Hourly) solar
00:03 63.9 °F 57.6 °F 30.1 in North 0.7 mph 1.6 mph 80% 0 in 0 W/m2
00:08 63.7 °F 57.7 °F 30.1 in NNW 0.7 mph 2.2 mph 81% 0 in 0 W/m2
00:13 63.5 °F 57.6 °F 30.1 in Calm   2.2 mph 81% 0 in 0 W/m2
00:18 63.1 °F 57.2 °F 30.1 in Calm   1.6 mph 81% 0 in 0 W/m2
00:23 62.8 °F 56.8 °F 30.1 in Calm     81% 0 in 0 W/m2
00:28 62.4 °F 57.2 °F 30.1 in Calm   1.6 mph 83% 0 in 0 W/m2
00:33 62.2 °F 57 °F 30.1 in Calm   1.6 mph 83% 0 in 0 W/m2
00:38 62.2 °F 57.4 °F 30.1 in Calm   1.6 mph 84% 0 in 0 W/m2
00:43 62.2 °F 57.7 °F 30.1 in Calm     85% 0 in 0 W/m2
00:48 62.1 °F 57.6 °F 30.1 in Calm     85% 0 in 0 W/m2
00:53 62.1 °F 57.6 °F 30.1 in Calm     85% 0 in 0 W/m2
00:58 61.9 °F 57.4 °F 30.1 in Calm     85% 0 in 0 W/m2
01:03 61.5 °F 57 °F 30.1 in Calm     85% 0 in 0 W/m2
01:08 61.2 °F 56.7 °F 30.1 in Calm     85% 0 in 0 W/m2
01:13 61 °F 56.5 °F 30.1 in Calm     85% 0 in 0 W/m2
01:18 60.8 °F 56.7 °F 30.1 in Calm     86% 0 in 0 W/m2
01:23 60.8 °F 56.8 °F 30.1 in Calm     87% 0 in 0 W/m2
01:28 60.6 °F 57 °F 30.1 in Calm     88% 0 in 0 W/m2
01:33 60.4 °F 56.8 °F 30.1 in Calm     88% 0 in 0 W/m2
01:38 60.3 °F 56.7 °F 30.1 in Calm     88% 0 in 0 W/m2
01:43 60.3 °F 57 °F 30.1 in Calm     89% 0 in 0 W/m2
01:48 60.1 °F 57.2 °F 30.1 in North 1.6 mph 3.1 mph 90% 0 in 0 W/m2
01:53 60.1 °F 57.6 °F 30.1 in North 2.2 mph 3.1 mph 91% 0 in 0 W/m2
01:58 59.7 °F 57.4 °F 30.1 in Calm   3.1 mph 92% 0 in 0 W/m2
02:03 59.5 °F 57.2 °F 30.1 in NNW 0.7 mph 2.2 mph 92% 0 in 0 W/m2
02:08 59.4 °F 57.4 °F 30.1 in Calm   1.6 mph 93% 0 in 0 W/m2
02:13 59.4 °F 57.4 °F 30.1 in Calm   1.6 mph 93% 0 in 0 W/m2
02:18 59.2 °F 57.2 °F 30.1 in Calm   1.6 mph 93% 0 in 0 W/m2
02:23 59.2 °F 57.6 °F 30.1 in NNE 2.2 mph 3.8 mph 94% 0 in 0 W/m2
02:28 59.2 °F 57.6 °F 30.1 in Calm   3.8 mph 94% 0 in 0 W/m2
02:33 59 °F 57.4 °F 30.1 in NNW 0.7 mph 3.8 mph 94% 0 in 0 W/m2
02:38 59 °F 57.4 °F 30.1 in NW 1.6 mph 3.1 mph 94% 0 in 0 W/m2
02:43 58.8 °F 57.4 °F 30.1 in Calm   3.1 mph 95% 0 in 0 W/m2
02:48 58.6 °F 57.6 °F 30.1 in NNW 1.6 mph 3.1 mph 96% 0 in 0 W/m2
02:53 58.6 °F 57.6 °F 30.1 in Calm   3.1 mph 96% 0 in 0 W/m2
02:58 58.5 °F 57.4 °F 30.1 in NNW 1.6 mph 2.2 mph 96% 0 in 0 W/m2
03:03 58.5 °F 57.4 °F 30.1 in NNW 2.2 mph 3.1 mph 96% 0 in 0 W/m2
03:08 58.5 °F 57.4 °F 30.1 in NNW 1.6 mph 3.8 mph 96% 0 in 0 W/m2
03:13 58.6 °F 57.7 °F 30.1 in NNW 1.6 mph 3.8 mph 97% 0 in 0 W/m2
03:18 58.8 °F 57.9 °F 30.1 in North 1.6 mph 3.8 mph 97% 0 in 0 W/m2
03:23 59 °F 57.9 °F 30.1 in NNW 1.6 mph 3.8 mph 96% 0 in 0 W/m2
03:28 59.2 °F 58.1 °F 30.1 in NNW 1.6 mph 4.5 mph 96% 0 in 0 W/m2
03:33 59.2 °F 58.1 °F 30.1 in NNW 3.1 mph 4.5 mph 96% 0 in 0 W/m2
03:38 59.2 °F 58.1 °F 30.1 in NNW 1.6 mph 5.4 mph 96% 0 in 0 W/m2
03:43 59 °F 57.9 °F 30.1 in NW 0.7 mph 5.4 mph 96% 0 in 0 W/m2
03:48 59 °F 57.9 °F 30.1 in NW 1.6 mph 4.5 mph 96% 0 in 0 W/m2
03:53 59 °F 57.6 °F 30.1 in NW 3.1 mph 4.5 mph 95% 0 in 0 W/m2
03:58 58.8 °F 57.7 °F 30.1 in NW 3.8 mph 5.4 mph 96% 0 in 0 W/m2
04:03 58.8 °F 57.7 °F 30.1 in NW 3.1 mph 5.4 mph 96% 0 in 0 W/m2
04:08 58.6 °F 57.6 °F 30.1 in NW 3.8 mph 5.4 mph 96% 0 in 0 W/m2
04:13 58.6 °F 57.6 °F 30.1 in NNW 2.2 mph 5.4 mph 96% 0 in 0 W/m2
04:18 58.5 °F 57.4 °F 30.1 in NW 2.2 mph 5.4 mph 96% 0 in 0 W/m2
04:23 58.5 °F 57.4 °F 30.1 in NNW 3.1 mph 5.4 mph 96% 0 in 0 W/m2
04:28 58.5 °F 57.4 °F 30.1 in NNW 3.1 mph 5.4 mph 96% 0 in 0 W/m2
04:33 58.5 °F 57.4 °F 30.1 in NW 1.6 mph 5.4 mph 96% 0 in 0 W/m2
04:38 58.6 °F 57.7 °F 30.1 in NNW 1.6 mph 4.5 mph 97% 0 in 0 W/m2
04:43 58.6 °F 57.7 °F 30.1 in North 3.1 mph 6 mph 97% 0 in 0 W/m2
04:48 58.6 °F 57.7 °F 30.1 in NNW 2.2 mph 6 mph 97% 0 in 0 W/m2
04:53 58.6 °F 57.7 °F 30.1 in NW 2.2 mph 6 mph 97% 0 in 0 W/m2
04:58 58.6 °F 57.7 °F 30.1 in NNW 2.2 mph 4.5 mph 97% 0 in 0 W/m2
05:03 58.6 °F 57.7 °F 30.1 in NW 2.2 mph 4.5 mph 97% 0 in 0 W/m2
05:08 58.5 °F 57.6 °F 30.1 in NW 2.2 mph 4.5 mph 97% 0 in 0 W/m2
05:13 58.5 °F 57.6 °F 30.1 in NNW 2.2 mph 5.4 mph 97% 0 in 0 W/m2
05:18 58.5 °F 57.6 °F 30.1 in NNW 2.2 mph 5.4 mph 97% 0 in 0 W/m2
05:23 58.5 °F 57.6 °F 30.1 in NNW 1.6 mph 4.5 mph 97% 0 in 0 W/m2
05:28 58.5 °F 57.6 °F 30.1 in Calm   4.5 mph 97% 0 in 0 W/m2
05:33 58.5 °F 57.6 °F 30.1 in NW 3.1 mph 4.5 mph 97% 0 in 0 W/m2
05:43 58.5 °F 57.6 °F 30.1 in NW 1.6 mph 5.4 mph 97% 0 in 0 W/m2
05:48 58.3 °F 57.4 °F 30.1 in NW 0.7 mph 4.5 mph 97% 0 in 0 W/m2
05:53 58.3 °F 57.4 °F 30.1 in NNW 1.6 mph 3.8 mph 97% 0 in 0 W/m2
05:58 58.1 °F 57.4 °F 30.1 in NW 3.8 mph 6.9 mph 97% 0 in 0 W/m2
06:03 58.1 °F 57.4 °F 30.1 in NW 0.7 mph 6.9 mph 97% 0 in 0 W/m2
06:08 57.9 °F 57 °F 30.1 in NNW 3.1 mph 4.5 mph 97% 0 in 0 W/m2
06:13 57.9 °F 57 °F 30.1 in North 0.7 mph 4.5 mph 97% 0 in 0 W/m2
06:18 57.9 °F 57 °F 30.1 in North 0.7 mph 4.5 mph 97% 0 in 0 W/m2
06:23 57.7 °F 57.2 °F 30.1 in North 0.7 mph 3.8 mph 98% 0 in 0 W/m2
06:28 57.7 °F 57.2 °F 30.1 in North 1.6 mph 3.8 mph 98% 0 in 0 W/m2
06:33 57.6 °F 57 °F 30.1 in North 2.2 mph 4.5 mph 98% 0 in 0 W/m2
06:38 57.6 °F 57 °F 30.1 in North 2.2 mph 4.5 mph 98% 0 in 0 W/m2
06:43 57.6 °F 57 °F 30.1 in NNW 0.7 mph 4.5 mph 98% 0 in 0 W/m2
06:48 57.6 °F 57 °F 30.1 in NNW 2.2 mph 4.5 mph 98% 0 in 2 W/m2
06:53 57.6 °F 57 °F 30.1 in NNW 2.2 mph 4.5 mph 98% 0 in 4 W/m2
06:58 57.7 °F 57.2 °F 30.1 in NW 0.7 mph 3.8 mph 98% 0 in 9 W/m2
07:16 57.7 °F 57.6 °F 30.1 in WNW 0.7 mph 3.8 mph 99% 0 in 29 W/m2
07:21 57.9 °F 57.7 °F 30.1 in NW 2.2 mph 4.5 mph 99% 0 in 35 W/m2
07:26 57.9 °F 57.7 °F 30.1 in NW 1.6 mph 4.5 mph 99% 0 in 41 W/m2
07:31 58.3 °F 57.9 °F 30.1 in NW 2.2 mph 4.5 mph 99% 0 in 37 W/m2
07:36 58.3 °F 57.9 °F 30.1 in NW 3.8 mph 5.4 mph 99% 0 in 45 W/m2
07:41 58.5 °F 58.3 °F 30.1 in NW 2.2 mph 6 mph 99% 0 in 59 W/m2
07:46 58.8 °F 58.6 °F 30.1 in NW 2.2 mph 6 mph 99% 0 in 67 W/m2
07:51 59 °F 58.5 °F 30.1 in NNW 2.2 mph 4.5 mph 98% 0 in 75 W/m2
07:56 59.4 °F 58.8 °F 30.1 in NNW 3.1 mph 4.5 mph 98% 0 in 81 W/m2
08:01 59.5 °F 59 °F 30.1 in NNW 2.2 mph 5.4 mph 98% 0 in 88 W/m2
08:06 59.9 °F 59.2 °F 30.1 in NNW 0.7 mph 5.4 mph 97% 0 in 94 W/m2
08:11 60.3 °F 59.4 °F 30.1 in NW 3.8 mph 5.4 mph 97% 0 in 109 W/m2
08:16 60.4 °F 59.4 °F 30.1 in NW 1.6 mph 5.4 mph 96% 0 in 122 W/m2
08:21 61.2 °F 59.7 °F 30.1 in NNW 0.7 mph 5.4 mph 95% 0 in 148 W/m2
08:26 61.9 °F 60.3 °F 30.1 in NNW 3.1 mph 4.5 mph 94% 0 in 157 W/m2
08:31 62.2 °F 60.3 °F 30.1 in NNW 3.1 mph 5.4 mph 93% 0 in 158 W/m2
08:36 62.6 °F 60.1 °F 30.1 in North 1.6 mph 5.4 mph 91% 0 in 136 W/m2
08:41 63.1 °F 60.3 °F 30.1 in North 3.1 mph 5.4 mph 90% 0 in 119 W/m2
08:46 63.7 °F 60.4 °F 30.1 in Calm   3.8 mph 89% 0 in 123 W/m2
08:51 64 °F 60.4 °F 30.1 in NNE 0.7 mph 4.5 mph 88% 0 in 105 W/m2
08:56 64.4 °F 60.8 °F 30.2 in North 2.2 mph 4.5 mph 88% 0 in 107 W/m2
09:01 64.2 °F 60.1 °F 30.2 in North 3.1 mph 6 mph 86% 0 in 137 W/m2
09:06 64.6 °F 60.6 °F 30.2 in North 2.2 mph 6 mph 87% 0 in 168 W/m2
09:11 65.5 °F 61.9 °F 30.2 in Calm   4.5 mph 88% 0 in 210 W/m2
09:16 66.7 °F 62.8 °F 30.2 in Calm   3.8 mph 87% 0 in 226 W/m2
09:21 68 °F 63 °F 30.2 in Calm   1.6 mph 84% 0 in 218 W/m2
09:26 68.7 °F 63.3 °F 30.2 in Calm   3.1 mph 83% 0 in 329 W/m2
09:31 70.5 °F 64.8 °F 30.2 in Calm   3.1 mph 82% 0 in 213 W/m2
09:36 72 °F 64 °F 30.2 in SSW 1.6 mph 3.8 mph 76% 0 in 295 W/m2
09:41 71.4 °F 63.1 °F 30.2 in South 3.8 mph 6 mph 75% 0 in 481 W/m2
09:46 71.4 °F 62.8 °F 30.2 in South 3.1 mph 6 mph 74% 0 in 297 W/m2
09:51 71.2 °F 62.6 °F 30.2 in South 4.5 mph 6 mph 74% 0 in 335 W/m2
09:56 72 °F 63.3 °F 30.2 in South 4.5 mph 6.9 mph 74% 0 in 388 W/m2
10:01 72.3 °F 62.8 °F 30.2 in South 4.5 mph 7.6 mph 72% 0 in 370 W/m2
10:06 71.8 °F 62.2 °F 30.2 in SSW 3.1 mph 7.6 mph 72% 0 in 407 W/m2
10:11 71.2 °F 62.2 °F 30.2 in SW 6 mph 7.6 mph 73% 0 in 339 W/m2
10:16 70 °F 61.7 °F 30.2 in SSW 5.4 mph 9.2 mph 75% 0 in 312 W/m2
10:21 69.4 °F 62.2 °F 30.2 in SSW 3.8 mph 9.2 mph 78% 0 in 330 W/m2
10:26 69.1 °F 63 °F 30.2 in SSW 6.9 mph 9.2 mph 81% 0 in 253 W/m2
10:31 68.4 °F 63 °F 30.2 in SSW 5.4 mph 9.2 mph 83% 0 in 162 W/m2
10:36 67.6 °F 63 °F 30.2 in SW 0.7 mph 8.3 mph 85% 0 in 137 W/m2
10:41 67.6 °F 63.3 °F 30.2 in SSW 3.8 mph 6.9 mph 86% 0 in 117 W/m2
10:46 67.5 °F 62.8 °F 30.2 in SSW 7.6 mph 10.7 mph 85% 0 in 54 W/m2
10:51 66.6 °F 62.6 °F 30.2 in SW 6.9 mph 12.1 mph 87% 0 in 49 W/m2
10:56 65.7 °F 63 °F 30.2 in SW 4.5 mph 13 mph 91% 0.01 in 51 W/m2
11:01 65.1 °F 62.4 °F 30.2 in SW 6 mph 13 mph 91% 0.01 in 61 W/m2
11:06 64.8 °F 62.1 °F 30.2 in SW 4.5 mph 10.7 mph 91% 0.01 in 46 W/m2
11:11 64.9 °F 62.6 °F 30.2 in SW 6.9 mph 10.7 mph 92% 0.01 in 65 W/m2
11:16 65.1 °F 62.8 °F 30.2 in SSW 5.4 mph 12.1 mph 92% 0.01 in 104 W/m2
11:21 65.3 °F 63 °F 30.2 in SW 3.8 mph 12.1 mph 92% 0.01 in 120 W/m2
11:26 65.8 °F 63.1 °F 30.2 in WSW 6.9 mph 11.4 mph 91% 0.01 in 181 W/m2
11:31 66.2 °F 63 °F 30.2 in WSW 5.4 mph 11.4 mph 89% 0.01 in 326 W/m2
11:36 67.3 °F 64 °F 30.2 in SW 6.9 mph 9.8 mph 89% 0.01 in 423 W/m2
11:41 68.4 °F 64 °F 30.2 in SW 4.5 mph 9.8 mph 86% 0.01 in 474 W/m2
11:46 69.4 °F 64.4 °F 30.2 in SSW 6.9 mph 9.8 mph 84% 0.01 in 448 W/m2
11:51 69.8 °F 64.4 °F 30.2 in SSW 5.4 mph 10.7 mph 83% 0.01 in 647 W/m2
11:56 70.7 °F 64.9 °F 30.2 in SSW 5.4 mph 10.7 mph 82% 0 in 468 W/m2
12:01 70.2 °F 63.7 °F 30.2 in South 6.9 mph 10.7 mph 80% 0 in 416 W/m2
12:06 69.8 °F 63.3 °F 30.2 in South 6 mph 10.7 mph 80% 0 in 435 W/m2
12:11 70.2 °F 64 °F 30.2 in SSW 7.6 mph 10.7 mph 81% 0 in 425 W/m2
12:16 70.3 °F 63.1 °F 30.2 in SSW 9.2 mph 10.7 mph 78% 0 in 362 W/m2
12:21 70.2 °F 62.6 °F 30.2 in SSW 3.8 mph 10.7 mph 77% 0 in 344 W/m2
12:26 70.2 °F 63.3 °F 30.2 in South 3.1 mph 10.7 mph 79% 0 in 377 W/m2
12:31 70.3 °F 63.1 °F 30.2 in South 6 mph 8.3 mph 78% 0 in 419 W/m2
12:36 70.3 °F 62.8 °F 30.2 in South 3.1 mph 9.2 mph 77% 0 in 435 W/m2
12:41 70.9 °F 63.3 °F 30.2 in South 3.8 mph 9.2 mph 77% 0 in 397 W/m2
12:46 71.2 °F 63 °F 30.2 in SSE 4.5 mph 7.6 mph 75% 0 in 393 W/m2
12:51 71.2 °F 62.6 °F 30.2 in SSE 4.5 mph 8.3 mph 74% 0 in 471 W/m2
12:56 71.1 °F 62.4 °F 30.2 in South 3.8 mph 8.3 mph 74% 0 in 514 W/m2
13:01 71.2 °F 62.2 °F 30.2 in South 6 mph 8.3 mph 73% 0 in 497 W/m2
13:06 71.1 °F 62.4 °F 30.2 in South 6.9 mph 8.3 mph 74% 0 in 402 W/m2
13:11 70.9 °F 62.6 °F 30.2 in SSW 6 mph 9.2 mph 75% 0 in 412 W/m2
13:16 70.3 °F 62.1 °F 30.2 in SSW 6.9 mph 9.2 mph 75% 0 in 380 W/m2
13:21 70 °F 62.1 °F 30.2 in South 6.9 mph 11.4 mph 76% 0 in 316 W/m2
13:26 69.6 °F 62.8 °F 30.2 in South 7.6 mph 11.4 mph 79% 0 in 271 W/m2
13:31 69.3 °F 62.4 °F 30.2 in SSW 7.6 mph 10.7 mph 79% 0 in 249 W/m2
13:36 69.1 °F 62.8 °F 30.2 in SW 7.6 mph 9.8 mph 80% 0 in 270 W/m2
13:41 69.1 °F 62.2 °F 30.2 in SW 5.4 mph 9.8 mph 79% 0 in 278 W/m2
13:46 69.1 °F 61.5 °F 30.2 in SSW 6.9 mph 11.4 mph 77% 0 in 264 W/m2
13:51 69.1 °F 62.1 °F 30.2 in SSW 6.9 mph 11.4 mph 78% 0 in 270 W/m2
13:56 69.3 °F 61.9 °F 30.2 in SSW 8.3 mph 11.4 mph 77% 0 in 273 W/m2
14:01 69.4 °F 62.2 °F 30.2 in SSW 6 mph 11.4 mph 78% 0 in 236 W/m2
14:06 69.8 °F 61.5 °F 30.2 in SSW 4.5 mph 10.7 mph 75% 0 in 282 W/m2
14:11 69.4 °F 63.3 °F 30.2 in SSW 9.2 mph 15.9 mph 81% 0 in 354 W/m2
14:16 68.9 °F 63.7 °F 30.2 in SSW 6 mph 15.9 mph 83% 0 in 351 W/m2
14:21 68.9 °F 63.7 °F 30.2 in SSW 8.3 mph 14.5 mph 83% 0.01 in 372 W/m2
14:26 68.7 °F 63.7 °F 30.2 in South 10.7 mph 15.2 mph 84% 0.01 in 317 W/m2
14:31 68.2 °F 63.5 °F 30.2 in South 7.6 mph 15.2 mph 85% 0.01 in 309 W/m2
14:36 68.2 °F 63.5 °F 30.2 in South 9.2 mph 15.2 mph 85% 0.01 in 305 W/m2
14:41 68 °F 63.3 °F 30.2 in South 11.4 mph 15.2 mph 85% 0.01 in 334 W/m2
14:46 68 °F 63.7 °F 30.2 in South 10.7 mph 14.5 mph 86% 0.01 in 304 W/m2
14:51 68 °F 63.7 °F 30.2 in SSW 6 mph 14.5 mph 86% 0.01 in 262 W/m2
14:56 68 °F 63.7 °F 30.2 in SSW 5.4 mph 13.6 mph 86% 0.01 in 215 W/m2
15:01 67.8 °F 63.9 °F 30.2 in SSW 9.8 mph 14.5 mph 87% 0.01 in 243 W/m2
15:06 67.3 °F 63.3 °F 30.2 in SSW 8.3 mph 15.9 mph 87% 0.01 in 242 W/m2
15:11 67.3 °F 63.7 °F 30.2 in SSW 9.8 mph 15.9 mph 88% 0.01 in 241 W/m2
15:16 66.9 °F 63.3 °F 30.2 in South 6.9 mph 14.5 mph 88% 0.01 in 255 W/m2
15:21 67.1 °F 63.9 °F 30.2 in SSW 6.9 mph 14.5 mph 89% 0 in 226 W/m2
15:26 66.9 °F 63.3 °F 30.2 in SSW 9.2 mph 13 mph 88% 0 in 200 W/m2
15:31 66.9 °F 63.3 °F 30.2 in South 7.6 mph 13 mph 88% 0 in 173 W/m2
15:36 66.9 °F 63.3 °F 30.2 in SSW 5.4 mph 13.6 mph 88% 0 in 175 W/m2
15:41 67.1 °F 63.5 °F 30.2 in SW 6.9 mph 13.6 mph 88% 0 in 183 W/m2
15:46 66.9 °F 63.3 °F 30.2 in SSW 7.6 mph 12.1 mph 88% 0 in 173 W/m2
15:51 67.1 °F 63.5 °F 30.2 in SSW 5.4 mph 12.1 mph 88% 0 in 153 W/m2
15:56 66.9 °F 63 °F 30.2 in SSW 6 mph 13.6 mph 87% 0 in 195 W/m2
16:01 67.1 °F 63.5 °F 30.2 in South 8.3 mph 13.6 mph 88% 0 in 198 W/m2
16:06 67.1 °F 63.5 °F 30.2 in SSW 6 mph 13 mph 88% 0 in 241 W/m2
16:11 67.5 °F 63.5 °F 30.2 in SSW 9.8 mph 13 mph 87% 0 in 242 W/m2
16:16 67.5 °F 63.5 °F 30.2 in SSW 9.2 mph 12.1 mph 87% 0 in 149 W/m2
16:21 67.1 °F 63.1 °F 30.2 in SSW 9.2 mph 12.1 mph 87% 0 in 172 W/m2
16:26 66.7 °F 63.1 °F 30.2 in SSW 6.9 mph 15.2 mph 88% 0 in 149 W/m2
16:31 66.7 °F 63.1 °F 30.2 in SSW 9.8 mph 15.9 mph 88% 0 in 150 W/m2
16:36 66.7 °F 63.3 °F 30.2 in SSW 9.8 mph 15.9 mph 89% 0 in 160 W/m2
16:41 66.7 °F 63.1 °F 30.2 in SSW 7.6 mph 15.9 mph 88% 0 in 182 W/m2
16:46 66.7 °F 63.1 °F 30.2 in SSW 10.7 mph 13.6 mph 88% 0 in 182 W/m2
16:51 66.7 °F 63.1 °F 30.2 in SSW 7.6 mph 13.6 mph 88% 0 in 218 W/m2
16:56 66.9 °F 63.3 °F 30.2 in SSW 9.8 mph 13.6 mph 88% 0 in 181 W/m2
17:01 66.9 °F 63 °F 30.2 in SW 7.6 mph 13.6 mph 87% 0 in 222 W/m2
17:06 67.3 °F 63.3 °F 30.2 in SSW 9.8 mph 13.6 mph 87% 0 in 220 W/m2
17:11 67.5 °F 63.5 °F 30.2 in South 4.5 mph 12.1 mph 87% 0 in 163 W/m2
17:16 66.9 °F 62.6 °F 30.2 in SSE 0.7 mph 12.1 mph 86% 0 in 82 W/m2
17:21 66.7 °F 62.8 °F 30.2 in SSE 3.1 mph 10.7 mph 87% 0 in 58 W/m2
17:26 66 °F 62.4 °F 30.2 in SSE 0.7 mph 5.4 mph 88% 0 in 86 W/m2
17:31 65.8 °F 62.8 °F 30.2 in SE 1.6 mph 5.4 mph 90% 0 in 48 W/m2
17:36 65.3 °F 62.2 °F 30.2 in South 4.5 mph 6.9 mph 90% 0 in 67 W/m2
17:41 65.1 °F 62.4 °F 30.2 in South 3.1 mph 6.9 mph 91% 0 in 88 W/m2
17:46 65.3 °F 63 °F 30.2 in South 7.6 mph 9.8 mph 92% 0 in 112 W/m2
17:51 65.7 °F 63.3 °F 30.2 in SSW 9.8 mph 13.6 mph 92% 0 in 138 W/m2
17:55 65.7 °F 63 °F 30.2 in SSW 9.2 mph 13.6 mph 91% 0 in 113 W/m2
18:00 65.8 °F 63.1 °F 30.2 in South 9.2 mph 13.6 mph 91% 0 in 81 W/m2
18:05 65.7 °F 62.8 °F 30.2 in South 5.4 mph 13 mph 90% 0 in 106 W/m2
18:10 66 °F 63.3 °F 30.2 in South 5.4 mph 13 mph 91% 0 in 127 W/m2
18:15 66.2 °F 63 °F 30.2 in South 6.9 mph 11.4 mph 89% 0 in 172 W/m2
18:20 66.7 °F 63.1 °F 30.2 in South 9.8 mph 11.4 mph 88% 0 in 279 W/m2
18:25 67.8 °F 63.5 °F 30.2 in SSE 7.6 mph 14.5 mph 86% 0 in 252 W/m2
18:30 67.8 °F 63.1 °F 30.2 in South 8.3 mph 14.5 mph 85% 0 in 187 W/m2
18:35 67.1 °F 62.4 °F 30.2 in SSW 7.6 mph 13.6 mph 85% 0 in 130 W/m2
18:40 66.6 °F 62.2 °F 30.2 in South 7.6 mph 13.6 mph 86% 0 in 134 W/m2
18:45 66.4 °F 62.4 °F 30.2 in South 9.2 mph 13.6 mph 87% 0 in 125 W/m2
18:50 66.2 °F 62.2 °F 30.2 in South 6 mph 13.6 mph 87% 0 in 110 W/m2
18:55 66.2 °F 62.2 °F 30.2 in SSW 8.3 mph 13 mph 87% 0 in 107 W/m2
19:00 66.2 °F 62.2 °F 30.2 in South 7.6 mph 13 mph 87% 0 in 84 W/m2
19:05 66 °F 62.8 °F 30.2 in SSE 6.9 mph 13 mph 89% 0 in 63 W/m2
19:10 65.8 °F 62.8 °F 30.2 in SSE 5.4 mph 11.4 mph 90% 0 in 58 W/m2
19:16 65.5 °F 62.4 °F 30.2 in SE 1.6 mph 9.2 mph 90% 0 in 47 W/m2
19:21 65.3 °F 62.6 °F 30.2 in SE 1.6 mph 7.6 mph 91% 0 in 24 W/m2
19:26 64.9 °F 62.2 °F 30.2 in SE 2.2 mph 7.6 mph 91% 0 in 18 W/m2
19:31 64.8 °F 62.4 °F 30.2 in ESE 3.1 mph 7.6 mph 92% 0 in 15 W/m2
19:36 64.6 °F 62.4 °F 30.2 in SE 1.6 mph 5.4 mph 93% 0 in 11 W/m2
19:41 64.2 °F 62.2 °F 30.2 in Calm   5.4 mph 93% 0 in 5 W/m2
19:46 64.2 °F 62.2 °F 30.2 in SE 1.6 mph 5.4 mph 93% 0 in 5 W/m2
20:02 64.2 °F 62.8 °F 30.2 in SE 3.8 mph 6.9 mph 95% 0 in 0 W/m2
20:07 64.2 °F 63.1 °F 30.2 in SSE 3.8 mph 6.9 mph 96% 0 in 0 W/m2
20:12 64.2 °F 63.1 °F 30.2 in South 3.8 mph 9.8 mph 96% 0 in 0 W/m2
20:17 64.2 °F 62.8 °F 30.2 in South 5.4 mph 12.1 mph 95% 0 in 0 W/m2
20:20 64.4 °F 63 °F 30.2 in South 4.5 mph 12.1 mph 95% 0 in 0 W/m2
20:25 64.8 °F 63 °F 30.2 in South 3.1 mph 10.7 mph 94% 0 in 0 W/m2
20:30 64.9 °F 63 °F 30.2 in South 2.2 mph 8.3 mph 93% 0 in 0 W/m2
20:36 64.8 °F 63 °F 30.2 in South 3.1 mph 7.6 mph 94% 0 in 0 W/m2
20:41 64.8 °F 63.3 °F 30.2 in South 2.2 mph 9.2 mph 95% 0 in 0 W/m2
20:46 64.6 °F 63.1 °F 30.2 in South 6.9 mph 9.8 mph 95% 0 in 0 W/m2
20:51 64.4 °F 63 °F 30.2 in South 3.8 mph 9.8 mph 95% 0 in 0 W/m2
20:56 64.4 °F 63 °F 30.2 in South 5.4 mph 10.7 mph 95% 0 in 0 W/m2
21:01 64.6 °F 62.8 °F 30.2 in South 6 mph 10.7 mph 94% 0 in 0 W/m2
21:06 64.6 °F 62.4 °F 30.2 in South 3.8 mph 10.7 mph 93% 0 in 0 W/m2
21:11 64.8 °F 62.8 °F 30.2 in South 6 mph 10.7 mph 93% 0 in 0 W/m2
21:16 64.9 °F 63 °F 30.2 in SSW 3.8 mph 9.2 mph 93% 0 in 0 W/m2
21:21 64.9 °F 63 °F 30.2 in SSW 3.1 mph 8.3 mph 93% 0 in 0 W/m2
21:26 64.9 °F 63.1 °F 30.2 in SSW 3.8 mph 6.9 mph 94% 0 in 0 W/m2
21:31 64.8 °F 63.3 °F 30.2 in SSW 3.8 mph 7.6 mph 95% 0 in 0 W/m2
21:36 64.8 °F 63 °F 30.2 in SSW 2.2 mph 7.6 mph 94% 0 in 0 W/m2
21:41 64.8 °F 63 °F 30.2 in SSW 1.6 mph 7.6 mph 94% 0 in 0 W/m2
21:46 64.9 °F 63.1 °F 30.2 in South 4.5 mph 7.6 mph 94% 0 in 0 W/m2
21:51 64.9 °F 63.1 °F 30.2 in SSW 2.2 mph 6.9 mph 94% 0 in 0 W/m2
21:56 64.9 °F 63.1 °F 30.2 in SSW 3.1 mph 6.9 mph 94% 0 in 0 W/m2
22:01 64.9 °F 63.1 °F 30.2 in SSW 3.1 mph 6 mph 94% 0 in 0 W/m2
22:05 64.9 °F 63.5 °F 30.2 in SW 2.2 mph 6 mph 95% 0 in 0 W/m2
22:10 64.8 °F 63.3 °F 30.2 in SW 0.7 mph 5.4 mph 95% 0 in 0 W/m2
22:15 64.8 °F 63.3 °F 30.2 in SW 2.2 mph 5.4 mph 95% 0 in 0 W/m2
22:20 64.8 °F 63.3 °F 30.2 in SW 1.6 mph 3.8 mph 95% 0 in 0 W/m2
22:25 64.8 °F 63.3 °F 30.2 in SW 2.2 mph 3.8 mph 95% 0 in 0 W/m2
22:30 64.8 °F 63.3 °F 30.2 in SW 1.6 mph 3.8 mph 95% 0 in 0 W/m2
22:35 64.6 °F 63.1 °F 30.2 in SW 3.8 mph 4.5 mph 95% 0 in 0 W/m2
22:40 64.6 °F 63.1 °F 30.2 in SW 2.2 mph 5.4 mph 95% 0 in 0 W/m2
22:59 64.6 °F 62.4 °F 30.2 in South 3.1 mph 5.4 mph 93% 0 in 0 W/m2
23:04 64.6 °F 62.4 °F 30.2 in South 2.2 mph 5.4 mph 93% 0 in 0 W/m2
23:09 64.8 °F 62.4 °F 30.2 in South 5.4 mph 7.6 mph 92% 0 in 0 W/m2
23:14 64.8 °F 61.5 °F 30.2 in South 3.8 mph 7.6 mph 89% 0 in 0 W/m2
23:19 64.9 °F 60.6 °F 30.2 in South 4.5 mph 8.3 mph 86% 0 in 0 W/m2
23:24 65.1 °F 60.4 °F 30.2 in South 3.8 mph 8.3 mph 85% 0 in 0 W/m2
23:29 65.3 °F 61 °F 30.2 in South 2.2 mph 8.3 mph 86% 0 in 0 W/m2
23:34 65.5 °F 61.2 °F 30.2 in South 6.9 mph 11.4 mph 86% 0 in 0 W/m2
23:39 65.3 °F 60.6 °F 30.2 in South 5.4 mph 11.4 mph 85% 0 in 0 W/m2
23:44 65.3 °F 60.4 °F 30.2 in South 6 mph 9.8 mph 84% 0 in 0 W/m2
23:49 65.3 °F 60.6 °F 30.2 in South 4.5 mph 8.3 mph 85% 0 in 0 W/m2
23:54 65.3 °F 60.6 °F 30.2 in South 3.1 mph 8.3 mph 85% 0 in 0 W/m2
23:59 65.3 °F 61 °F 30.2 in SSE 3.8 mph 9.8 mph 86% 0 in 0 W/m2
Northern Hawkes Bay. New Zealand Historic Data
Compliments of Weather Underground - 2.25 mb